When you browse on this site, cookies collect data to enhance your experience and personalize the content and advertising you see.
Visit our Privacy Policy to learn more. By continuing to use the site, you agree to this use of cookies and data.
  • en France
  • Liste des pays
  • À 7 jours
  • Température de l'eau
  • Carte satellitaire
  • Carte météo
  • Widgets météo
  • user-avatar
    Se connecter

    Météo par heure à Wangkui

    Ce jour, 19 Juillet, Vendredi

    Heure Température Précipitation Vent Pression Humidité
    00:00 +22°C° 0 mm 1 m/s 739 mmHg 89%
    01:00 +22°C° 0 mm 1 m/s 739 mmHg 90%
    02:00 +21°C° 0 mm 1 m/s 739 mmHg 90%
    03:00 +21°C° 0 mm 1 m/s 739 mmHg 90%
    04:00 +21°C° 0 mm 1 m/s 739 mmHg 90%
    05:00 +21°C° 0 mm 1 m/s 740 mmHg 90%
    06:00 +23°C° 0 mm 1 m/s 740 mmHg 85%
    07:00 +25°C° 0 mm 2 m/s 740 mmHg 80%
    08:00 +26°C° 0 mm 2 m/s 740 mmHg 77%
    09:00 +28°C° 0 mm 2 m/s 740 mmHg 72%
    10:00 +29°C° 0 mm 2 m/s 740 mmHg 67%
    11:00 +30°C° 0 mm 2 m/s 740 mmHg 62%
    12:00 +31°C° 0 mm 2 m/s 739 mmHg 59%
    13:00 +32°C° 0 mm 2 m/s 739 mmHg 56%
    14:00 +34°C° 0 mm 2 m/s 739 mmHg 53%
    15:00 +34°C° 0 mm 2 m/s 739 mmHg 57%
    16:00 +32°C° 0 mm 2 m/s 739 mmHg 60%
    17:00 +32°C° 0 mm 2 m/s 738 mmHg 63%
    18:00 +30°C° 0.1 mm 2 m/s 739 mmHg 68%
    19:00 +28°C° 0.1 mm 2 m/s 739 mmHg 72%
    20:00 +27°C° 0.1 mm 2 m/s 739 mmHg 76%
    21:00 +26°C° 0 mm 3 m/s 739 mmHg 79%
    22:00 +25°C° 0 mm 3 m/s 739 mmHg 82%
    23:00 +25°C° 0 mm 3 m/s 739 mmHg 84%

    Demain, 20 Juillet, Samedi

    Heure Température Précipitation Vent Pression Humidité
    00:00 +24°C° 0 mm 3 m/s 739 mmHg 85%
    01:00 +24°C° 0 mm 3 m/s 739 mmHg 86%
    02:00 +22°C° 0 mm 3 m/s 739 mmHg 87%
    03:00 +22°C° 0 mm 3 m/s 739 mmHg 88%
    04:00 +22°C° 0 mm 3 m/s 739 mmHg 89%
    05:00 +22°C° 0 mm 3 m/s 739 mmHg 90%
    06:00 +25°C° 0 mm 4 m/s 739 mmHg 85%
    07:00 +26°C° 0 mm 4 m/s 739 mmHg 81%
    08:00 +28°C° 0 mm 5 m/s 739 mmHg 77%
    09:00 +29°C° 0.1 mm 5 m/s 739 mmHg 72%
    10:00 +30°C° 0.1 mm 5 m/s 738 mmHg 68%
    11:00 +33°C° 0.1 mm 6 m/s 738 mmHg 64%
    12:00 +33°C° 0.4 mm 6 m/s 738 mmHg 63%
    13:00 +33°C° 0.4 mm 6 m/s 737 mmHg 62%
    14:00 +34°C° 0.4 mm 6 m/s 737 mmHg 61%
    15:00 +34°C° 0.1 mm 5 m/s 736 mmHg 63%
    16:00 +33°C° 0.1 mm 4 m/s 736 mmHg 66%
    17:00 +33°C° 0.1 mm 3 m/s 736 mmHg 68%
    18:00 +31°C° 0 mm 3 m/s 736 mmHg 71%
    19:00 +29°C° 0 mm 3 m/s 736 mmHg 73%
    20:00 +27°C° 0 mm 3 m/s 736 mmHg 75%
    21:00 +27°C° 0 mm 3 m/s 736 mmHg 76%
    22:00 +26°C° 0 mm 3 m/s 736 mmHg 78%
    23:00 +26°C° 0 mm 3 m/s 736 mmHg 79%

    Après-demain, 21 Juillet, Dimanche

    Heure Température Précipitation Vent Pression Humidité
    00:00 +26°C° 0 mm 3 m/s 736 mmHg 79%
    01:00 +26°C° 0 mm 3 m/s 735 mmHg 80%
    02:00 +26°C° 0 mm 4 m/s 735 mmHg 80%
    03:00 +25°C° 0.1 mm 4 m/s 735 mmHg 82%
    04:00 +25°C° 0.1 mm 4 m/s 735 mmHg 85%
    05:00 +24°C° 0.1 mm 3 m/s 735 mmHg 87%
    06:00 +26°C° 0.1 mm 4 m/s 735 mmHg 84%
    07:00 +27°C° 0.1 mm 5 m/s 736 mmHg 81%
    08:00 +28°C° 0.1 mm 6 m/s 736 mmHg 78%
    09:00 +28°C° 1.2 mm 7 m/s 736 mmHg 79%
    10:00 +28°C° 1.2 mm 7 m/s 736 mmHg 81%
    11:00 +28°C° 1.2 mm 8 m/s 736 mmHg 83%
    12:00 +27°C° 0.8 mm 7 m/s 736 mmHg 86%
    13:00 +26°C° 0.8 mm 6 m/s 736 mmHg 90%
    14:00 +25°C° 0.8 mm 5 m/s 736 mmHg 93%
    15:00 +25°C° 0.6 mm 5 m/s 736 mmHg 93%
    16:00 +25°C° 0.6 mm 5 m/s 736 mmHg 94%
    17:00 +23°C° 0.6 mm 5 m/s 736 mmHg 94%
    18:00 +23°C° 0.1 mm 4 m/s 736 mmHg 95%
    19:00 +22°C° 0.1 mm 4 m/s 736 mmHg 96%
    20:00 +22°C° 0.1 mm 4 m/s 736 mmHg 97%
    21:00 +22°C° 0 mm 4 m/s 736 mmHg 97%
    22:00 +22°C° 0 mm 4 m/s 736 mmHg 97%
    23:00 +22°C° 0 mm 4 m/s 736 mmHg 97%

    22 Juillet, Lundi

    Heure Température Précipitation Vent Pression Humidité
    00:00 +21°C° 0 mm 3 m/s 736 mmHg 97%
    01:00 +21°C° 0 mm 2 m/s 736 mmHg 98%
    02:00 +20°C° 0 mm 2 m/s 735 mmHg 98%
    03:00 +21°C° 0 mm 2 m/s 735 mmHg 98%
    04:00 +21°C° 0 mm 3 m/s 735 mmHg 98%
    05:00 +21°C° 0 mm 3 m/s 734 mmHg 98%
    06:00 +22°C° 0 mm 3 m/s 734 mmHg 95%
    07:00 +24°C° 0 mm 3 m/s 734 mmHg 93%
    08:00 +23°C° 0 mm 4 m/s 734 mmHg 91%
    09:00 +26°C° 0.4 mm 4 m/s 734 mmHg 85%
    10:00 +28°C° 0.4 mm 4 m/s 733 mmHg 80%
    11:00 +29°C° 0.4 mm 4 m/s 733 mmHg 74%
    12:00 +29°C° 1.1 mm 4 m/s 732 mmHg 75%
    13:00 +29°C° 1.1 mm 5 m/s 732 mmHg 76%
    14:00 +29°C° 1.1 mm 5 m/s 732 mmHg 78%
    15:00 +29°C° 0.6 mm 4 m/s 732 mmHg 77%
    16:00 +29°C° 0.6 mm 4 m/s 732 mmHg 77%
    17:00 +28°C° 0.6 mm 3 m/s 732 mmHg 77%
    18:00 +27°C° 0 mm 3 m/s 732 mmHg 78%
    19:00 +26°C° 0 mm 3 m/s 732 mmHg 78%
    20:00 +24°C° 0 mm 3 m/s 733 mmHg 79%
    21:00 +23°C° 0 mm 2 m/s 733 mmHg 81%
    22:00 +23°C° 0 mm 2 m/s 733 mmHg 82%
    23:00 +21°C° 0 mm 2 m/s 733 mmHg 83%

    23 Juillet, Mardi

    Heure Température Précipitation Vent Pression Humidité
    00:00 +21°C° 0 mm 2 m/s 733 mmHg 82%
    01:00 +20°C° 0 mm 3 m/s 733 mmHg 81%
    02:00 +20°C° 0 mm 3 m/s 733 mmHg 81%
    03:00 +20°C° 0 mm 3 m/s 733 mmHg 82%
    04:00 +19°C° 0 mm 3 m/s 733 mmHg 83%
    05:00 +19°C° 0 mm 2 m/s 733 mmHg 84%
    06:00 +21°C° 0 mm 3 m/s 733 mmHg 79%
    07:00 +24°C° 0 mm 3 m/s 734 mmHg 75%
    08:00 +25°C° 0 mm 3 m/s 734 mmHg 70%
    09:00 +26°C° 0 mm 4 m/s 734 mmHg 67%
    10:00 +28°C° 0 mm 5 m/s 734 mmHg 63%
    11:00 +29°C° 0 mm 5 m/s 734 mmHg 60%
    12:00 +29°C° 0 mm 5 m/s 734 mmHg 59%
    13:00 +29°C° 0 mm 5 m/s 733 mmHg 59%
    14:00 +29°C° 0 mm 4 m/s 733 mmHg 59%
    15:00 +29°C° 0 mm 4 m/s 733 mmHg 61%
    16:00 +29°C° 0 mm 3 m/s 733 mmHg 63%
    17:00 +29°C° 0 mm 2 m/s 733 mmHg 65%
    18:00 +27°C° 0 mm 2 m/s 733 mmHg 70%
    19:00 +25°C° 0 mm 3 m/s 733 mmHg 76%
    20:00 +24°C° 0 mm 3 m/s 733 mmHg 81%
    21:00 +22°C° 0.4 mm 3 m/s 733 mmHg 85%
    22:00 +22°C° 0.4 mm 3 m/s 733 mmHg 89%
    23:00 +21°C° 0.4 mm 3 m/s 733 mmHg 93%

    24 Juillet, Mercredi

    Heure Température Précipitation Vent Pression Humidité
    00:00 +21°C° 0.4 mm 3 m/s 733 mmHg 93%
    01:00 +21°C° 0.4 mm 3 m/s 733 mmHg 94%
    02:00 +21°C° 0.4 mm 3 m/s 733 mmHg 95%
    03:00 +20°C° 0.6 mm 3 m/s 733 mmHg 95%
    04:00 +20°C° 0.6 mm 3 m/s 733 mmHg 96%
    05:00 +20°C° 0.6 mm 2 m/s 733 mmHg 97%
    06:00 +21°C° 0 mm 2 m/s 733 mmHg 94%
    07:00 +22°C° 0 mm 3 m/s 733 mmHg 90%
    08:00 +24°C° 0 mm 3 m/s 733 mmHg 87%
    09:00 +25°C° 0.7 mm 3 m/s 733 mmHg 83%
    10:00 +26°C° 0.7 mm 3 m/s 733 mmHg 78%
    11:00 +27°C° 0.7 mm 3 m/s 733 mmHg 74%
    12:00 +28°C° 1.5 mm 2 m/s 733 mmHg 73%
    13:00 +28°C° 1.5 mm 2 m/s 732 mmHg 73%
    14:00 +28°C° 1.5 mm 2 m/s 732 mmHg 72%
    15:00 +28°C° 1.5 mm 2 m/s 732 mmHg 73%
    16:00 +28°C° 1.5 mm 1 m/s 732 mmHg 74%
    17:00 +28°C° 1.5 mm 1 m/s 732 mmHg 75%
    18:00 +26°C° 0 mm 2 m/s 732 mmHg 78%
    19:00 +24°C° 0 mm 2 m/s 732 mmHg 82%
    20:00 +21°C° 0 mm 2 m/s 733 mmHg 85%
    21:00 +21°C° 0 mm 2 m/s 733 mmHg 86%
    22:00 +20°C° 0 mm 2 m/s 733 mmHg 87%
    23:00 +19°C° 0 mm 2 m/s 733 mmHg 88%
    Voir plus